#timestamp,LO_Frequency,Hit,StdDev 
1514721615.1,286047000.4,N
1514721635.8,286046998.6,N
1514721655.7,286047001.2,N
1514721675.5,286046994.9,Y
1514721695.4,286046994.0,P
1514721715.2,286046995.5,N
1514721735.0,286046995.5,N
1514721735.9,286046995.5,N
1514721755.8,286046995.0,N
1514721775.6,286047000.7,N
1514721795.5,286046998.8,N
1514721815.3,286046997.3,N
1514721835.1,286046997.2,N
1514721855.9,286046998.3,N
1514721875.7,286047000.4,N
1514721895.5,286047001.0,N
1514721915.4,286046997.3,N
1514721935.2,286046993.3,Y
1514721955.1,286046999.4,P
1514721956.0,286046999.4,N
1514721975.8,286046999.0,N
1514721995.6,286046999.3,N
1514722015.5,286047001.1,N
1514722035.3,286046998.1,N
1514722055.2,286047002.2,N
1514722075.9,286047001.6,N
1514722095.7,286047001.7,N
1514722115.6,286047003.9,N
1514722135.4,286047002.1,N
1514722155.2,286047002.1,N
1514722175.1,286047001.7,N
1514722176.0,286047001.7,N
1514722195.8,286047003.8,N
1514722215.7,286047002.5,N
1514722235.5,286047004.4,N
1514722255.3,286047005.6,N
1514722275.2,286047004.2,N
1514722295.0,286047001.9,N
1514722295.9,286047001.9,N
1514722315.8,286047001.6,N
1514722335.6,286046998.9,N
1514722355.4,286047000.7,N
1514722375.3,286047000.1,N
1514722395.1,286047002.2,N
1514722415.9,286047003.8,N
1514722435.7,286047004.2,N
1514722455.5,286047001.7,N
1514722475.4,286047000.0,N
1514722495.2,286047003.7,N
1514722515.0,286047001.8,N
1514722515.9,286047001.8,N
1514722535.8,286047002.7,N
1514722555.6,286047002.7,N
1514722575.5,286046997.0,N
1514722595.3,286046998.0,N
1514722615.1,286046998.0,N
1514722635.9,286046994.9,N
1514722655.7,286046997.6,N
1514722675.6,286046994.9,N
1514722695.4,286046995.6,N
1514722715.2,286046994.4,N
1514722735.1,286046992.5,N
1514722736.0,286046992.5,N
1514722755.8,286046993.7,N
1514722775.6,286046993.3,N
1514722795.5,286046993.8,N
1514722815.3,286046995.0,N
1514722835.2,286046998.0,N
1514722855.0,286046995.2,N
1514722855.9,286046995.2,N
1514722875.7,286046997.0,N
1514722895.6,286046999.4,N
1514722915.4,286046999.6,N
1514722935.3,286047000.4,N
1514722955.1,286047000.4,N
1514722975.8,286046998.2,N
1514722995.7,286046999.0,N
1514723015.5,286046998.6,N
1514723035.4,286046998.8,N
1514723055.2,286046998.9,N
1514723075.0,286046998.3,N
1514723075.9,286046998.3,N
1514723095.8,286046998.4,N
1514723115.6,286046998.5,N
1514723135.5,286046999.1,N
1514723155.3,286046998.4,N
1514723175.1,286047001.1,N
1514723195.9,286046999.9,N
1514723215.7,286047002.1,N
1514723235.5,286047001.7,N
1514723255.4,286046998.2,N
1514723275.2,286046999.5,N
1514723295.1,286047000.7,N
1514723296.0,286047000.7,N
1514723315.8,286046999.7,N
1514723335.6,286047002.3,N
1514723355.5,286047000.4,N
1514723375.3,286046998.6,N
1514723395.2,286046998.9,N
1514723415.9,286046998.6,N
1514723435.7,286047000.9,N
1514723455.6,286047000.9,N
1514723475.4,286046999.9,N
1514723495.2,286047000.9,N
1514723515.1,286047000.2,N
1514723516.0,286047000.2,N
1514723535.8,286046999.8,N
1514723555.7,286047000.7,N
1514723575.5,286046997.0,N
1514723595.3,286046998.8,N
1514723615.2,286047001.1,N
1514723635.0,286047000.3,N
1514723635.9,286047000.3,N
1514723655.8,286047000.8,N
1514723675.6,286046997.5,N
1514723695.4,286046997.0,N
1514723715.3,286046997.7,N
1514723735.1,286046995.1,Y
1514723755.8,286046997.0,P
1514723775.7,286046998.7,N
1514723795.5,286046998.6,N
1514723815.4,286047002.0,N
1514723835.2,286047000.3,N
1514723855.0,286046999.7,N
1514723855.9,286046999.7,N
1514723875.8,286047001.8,N
1514723895.6,286047001.6,N
1514723915.4,286047002.4,N
1514723935.3,286046999.7,N
1514723955.1,286047000.7,N
1514723975.9,286047011.9,Y
1514723995.7,286047002.3,P
1514724015.5,286047002.1,N
1514724035.4,286047000.0,N
1514724055.2,286047002.8,N
1514724075.1,286047000.6,N
1514724076.0,286047000.6,N
1514724095.8,286046999.0,N
1514724115.6,286046999.1,N
1514724135.5,286047000.9,N
1514724155.3,286047002.3,N
1514724175.2,286046999.9,N
1514724195.9,286047002.5,N
1514724215.7,286047001.7,N
1514724235.6,286047001.7,N
1514724255.4,286046999.9,N
1514724275.2,286046999.5,N
1514724295.1,286046996.8,N
1514724296.0,286046996.8,N
1514724315.8,286046997.0,N
1514724335.7,286046998.4,N
1514724355.5,286046998.6,N
1514724375.3,286047000.2,N
1514724395.2,286047001.9,N
1514724415.0,286047002.1,N
1514724415.9,286047002.1,N
1514724435.8,286047002.6,N
1514724455.6,286047001.1,N
1514724475.4,286047000.0,N
1514724495.3,286047002.5,N
1514724515.1,286046998.3,N
1514724535.9,286046996.6,N
1514724555.7,286046996.5,N
1514724575.5,286046997.0,N
1514724595.4,286046998.6,N
1514724615.2,286047000.4,N
1514724635.0,286047000.2,N
1514724636.0,286047000.2,N
1514724655.8,286046999.7,N
1514724675.6,286047002.7,N
1514724695.5,286047000.3,N
1514724715.3,286046998.2,N
1514724735.1,286046998.3,N
1514724755.9,286047000.0,N
1514724775.7,286046998.3,N
1514724795.6,286047000.8,N
1514724815.4,286046998.5,N
1514724835.2,286046997.2,N
1514724855.1,286046999.8,N
1514724856.0,286046999.8,N
1514724875.8,286047002.0,N
1514724895.6,286046998.1,N
1514724915.5,286046999.7,N
1514724935.3,286047000.6,N
1514724955.2,286046997.4,N
1514724975.0,286047000.7,N
1514724975.9,286047000.7,N
1514724995.8,286047000.5,N
1514725015.6,286047000.7,N
1514725035.4,286047002.2,N
1514725055.3,286047002.2,N
1514725075.1,286047003.7,N
1514725095.8,286047004.0,N
1514725115.7,286047001.7,N
1514725135.5,286047000.9,N
1514725155.4,286046996.8,N
1514725175.2,286046998.0,N
1514725195.0,286046999.3,N
1514725195.9,286046999.3,N
